Regional Weather Roundup
Issued by NWS

Home | Current Version | Previous Version | Text Only | Print | Product List | Glossary On
Versions: 1 2 3 4 5 6 7 8 9 10 11 12 13 14 15 16 17 18 19 20 21 22 23 24 25 26 27 28 29 30 31 32 33 34 35 36 37 38 39 40 41 42 43 44 45 46 47 48 49 50
000
ASUS44 KJAN 182310
RWRMS

MISSISSIPPI HOURLY WEATHER ROUNDUP
NATIONAL WEATHER SERVICE JACKSON MS
600 PM CDT THU SEP 18 2014

NOTE: "FAIR: INDICATES FEW OR NO CLOUDS BELOW 12,000 FEET WITH NO
SIGNIFICANT WEATHER AND/OR OBSTRUCTIONS TO VISIBILITY.

MSZ001>002-007>008-010>013-018>021-025>028-034>036-190000-
NORTHWEST MISSISSIPPI

CITY           SKY/WX    TMP DP  RH WIND       PRES   REMARKS
CLARKSDALE     FAIR      72  72 100 CALM      29.93F
CLEVELAND      DRIZZLE   73  72  97 CALM      29.90F
GREENWOOD      LGT RAIN  74  70  87 S3        29.94R
GREENVILLE     CLOUDY    77  67  71 E7        29.89R
GRENADA        CLOUDY    68  66  94 S17G25    29.96R
OLIVE BRANCH   CLOUDY    75  73  94 N10       29.93R
OXFORD         FAIR      75  68  78 E3        29.93R
TUNICA         CLOUDY    72  64  78 S10       29.94R
$$

MSZ003>006-009-014>017-022>024-029>033-037>039-190000-
NORTHEAST MISSISSIPPI

CITY           SKY/WX    TMP DP  RH WIND       PRES   REMARKS
COLUMBUS AFB   DRIZZLE   82  68  61 SE5       29.90R
CORINTH        FAIR      73  66  78 NE7       29.94S
GOLDN TRIANGLE PTSUNNY   82  66  57 SE5       29.91R
STARKVILLE     LGT RAIN  73  72  94 CALM      29.92R
TUPELO         MOSUNNY   79  67  66 NE14G20   29.91R
$$

MSZ040-058-190000-
CENTRAL MISSISSIPPI

CITY           SKY/WX    TMP DP  RH WIND       PRES   REMARKS
JACKSON INTL   CLOUDY    82  73  74 SW8       29.89R THUNDER
JACKSON HAWKNS PTSUNNY   75  67  76 N3        29.90R
MERIDIAN KEY   PTSUNNY   79  73  82 CALM      29.90S
MERIDIAN NAS   CLOUDY    73  70  90 W6        29.91S
RAYMOND        FAIR      75  70  83 NE3       29.90R
VICKSBURG      PTSUNNY   85  69  58 E12       29.88R
$$

MSZ059>079-190000-
SOUTH MISSISSIPPI

CITY           SKY/WX    TMP DP  RH WIND       PRES   REMARKS
BROOKHAVEN     FAIR      82  75  78 CALM      29.90S
COLUMBIA       FAIR      82  77  83 CALM      29.87R HX  91
HATTIESBURG    LGT RAIN  74  68  81 CALM      29.90S
MCCOMB         CLOUDY    83  72  69 CALM      29.89S
NATCHEZ        PTSUNNY   82  73  74 E3        29.88S
PINE BELT      PTSUNNY  N/A N/A N/A SE12G18   29.91R
$$

MSZ080>082-190000-
COASTAL MISSISSIPPI

CITY           SKY/WX    TMP DP  RH WIND       PRES   REMARKS
BAY ST LOUIS   MOSUNNY   84  70  61 CALM      29.88R
BILOXI         CLOUDY    84  73  68 SE5       29.89R HX  91
PASCAGOULA     CLOUDY    81  74  79 NE10      29.89R HAZE
GULFPORT       CLOUDY    84  73  69 SE8       29.88R HX  90
$$


USA.gov is the U.S. government's official web portal to all federal, state and local government web resources and services.